STARLINK-32402, 61708

Orbit data source: Space-Track

STARLINK-32402, 61708 is a payload satellite owned by SpaceX/Seattle (US) in LEO that was launched on Wed, 30 Oct 2024 UTC via an FALCON 9 launch vehicle from the Air Force Eastern Test Range (AFETR). Payloads include a variety of satellites, spacecraft, and rockets equipped with specific instruments for various scientific and technological missions. These include communications satellites like Starlink; space stations such as the ISS; scientific satellites like the Hubble; Earth observation satellites from companies like Planet Labs, Umbra, and HawkEye 360; GPS; miniature CubeSats for education and research; and military/defense satellites.

Loading next visibility...
STARLINK-32402 details
Identifier
61708, 2024-196B
Orbit
LEO
Last TLE update17 hours ago
Origin
Flag of USSpaceX/Seattle (US)
ManufacturerSpaceX/Seattle
MissionOperational spacecraft
Bus & MotorSTARLINK V2M, Unknown motor
Mass730 kg wet, ~700 kg dry
Launch date (UTC)
2024-10-30 (3 months ago)
Launch vehicle
FALCON 9
Launch site
Air Force Eastern Test Range (AFETR)
Object type
Payload
Rocket body
Debris
Shape & HBRUnknown
Radar Cross SectionLarge (>1 m²)

Expand to show TLE details & history

TLE from 17 hours ago
0 STARLINK-32402
1 61708U 24196B   25023.89753082  .00003969  00000-0  10917-3 0  9996
2 61708  53.1586 204.9173 0001143 103.5133 256.5999 15.39613868 14418
Epoch: 2025-01-23T21:32Z
Definitive object data (Epoch: 2025-01-23T21:32:26.662Z)
Latitude-0.00006°
Longitude118.3377°
Altitude448.334 km
Speed7.644 km/s
True Right ascension13h 39m 40s
True Declination0° 00' 00"
Sunlit
Object was in daylight at TLE epoch
Visualization TLE readout
Latitude-53.30583°
Longitude26.16679°
Altitude466.522 km
Speed7.632 km/s
Apparent Right ascension05h 20m 41s
Apparent Declination-50° 37' 12"
Sunlit
Object is in daylight
Visualization observer readout
Local Sidereal Time15:33:37
Azimuth231.248° WSW
Elevation-68.505°
Doppler factor1
Orbital elements
Apogee altitude448.288 km
Perigee altitude446.728 km
Semi-major axis6,825.645 km
Eccentricity0.0001143
Inclination53.1586°
RAAN204.9173°
Arg. of periapsis103.5133°
True anomaly256.58716°
Mean anomaly256.5999°
Eccentric anomaly256.59353°
Mean motion3.84882 °/min
BSTAR0.00010917
Orbital period93.54 mins
Loading maneuver chart data...
Loading historical data...
Loading historical data...
Loading historical data...
Loading historical data...
Loading historical data...
Loading historical data...
Loading historical data...

STARLINK-32402 Visibility forecast

Observer location: undefined°, undefined

Span
Click to sort rows by Start time (UTC) header in descending order
Start Az.
Max El. time (UTC)
Max El. Az.
Max El.
End time (UTC)
End Az.
6 mins2025-01-24 14:51:28.003Z236.064° WSW2025-01-24 14:54:28.003Z269.345° W41.484°2025-01-24 14:57:28.003Z44.502° NE
5 mins2025-01-24 21:25:28.003Z311.188° NW2025-01-24 21:27:28.003Z77.937° E44.96°2025-01-24 21:30:28.003Z129.989° SE
|